This demonstration page uses our WeatherBlox Daily Observations layout. Learn more.

Left ArrowRight Arrow

Hourly Observations for November 24, 2022

Temp ( °F °C ) Dew Point ( °F °C ) Humidity (%) Winds ( mph kmh ) Pressure ( in mb ) Visibility ( mi km ) Precip ( " mm )
12:56 am 00:56 Clear 39 3.9 27 -2.8 62 62 NNW 18 30 30.03 1017 10 16 0.00 0.00
1:56 am 01:56 Clear 36 2.2 27 -2.8 69 69 N 10 17 30.04 1017 10 16 0.00 0.00
2:56 am 02:56 Clear 32 0 26 -3.3 78 78 NNW 9 15 30.08 1019 10 16 0.00 0.00
3:56 am 03:56 Clear 34 1.1 28 -2.2 79 79 N 13 20 30.08 1019 10 16 0.00 0.00
4:56 am 04:56 Clear 33 0.6 29 -1.7 85 85 N 14 22 30.12 1020 10 16 0.00 0.00
5:56 am 05:56 Clear 34 1.1 30 -1.1 85 85 NNW 13 20 30.16 1021 10 16 0.00 0.00
6:56 am 06:56 Clear 34 1.1 30 -1.1 85 85 NNW 10 17 30.21 1023 10 16 0.00 0.00
7:56 am 07:56 Sunny 32 0 29 -1.7 88 88 NNW 9 15 30.25 1024 10 16 0.00 0.00
8:29 am 08:29 Mostly Cloudy 34 1 30 -1 86 86 NNW 10 17 30.30 1026 10 16 0.00 0.00
8:56 am 08:56 Cloudy 36 2.2 32 0 85 85 NNW 10 17 30.28 1025 10 16 0.00 0.00
9:56 am 09:56 Mostly Cloudy 40 4.4 31 -0.6 70 70 N 24 39 30.29 1026 10 16 0.00 0.00
10:04 am 10:04 Partly Cloudy 39 4 30 -1 70 70 N 22 35 30.31 1026 10 16 0.00 0.00
10:56 am 10:56 Sunny 43 6.1 30 -1.1 60 60 N 25 41 30.31 1026 10 16 0.00 0.00
11:56 am 11:56 Sunny 46 7.8 32 0 58 58 NNW 22 35 30.30 1026 10 16 0.00 0.00
12:56 pm 12:56 Sunny 48 8.9 32 0 54 54 N 25 41 30.28 1025 10 16 0.00 0.00
1:56 pm 13:56 Sunny 50 10 32 0 50 50 N 21 33 30.28 1025 10 16 0.00 0.00
2:56 pm 14:56 Sunny 50 10 31 -0.6 48 48 NNW 18 30 30.27 1025 10 16 0.00 0.00
3:56 pm 15:56 Sunny 50 10 31 -0.6 48 48 N 18 30 30.27 1025 10 16 0.00 0.00
4:56 pm 16:56 Sunny 47 8.3 30 -1.1 51 51 N 14 22 30.30 1026 10 16 0.00 0.00
5:56 pm 17:56 Clear 42 5.6 28 -2.2 57 57 NNW 9 15 30.34 1028 10 16 0.00 0.00
6:56 pm 18:56 Clear 36 2.2 26 -3.3 67 67 NNW 5 7 30.39 1029 10 16 0.00 0.00
7:56 pm 19:56 Clear 36 2.2 25 -3.9 64 64 NNW 8 13 30.42 1030 10 16 0.00 0.00
8:56 pm 20:56 Clear 30 -1.1 23 -5 75 75 NW 7 11 30.42 1030 10 16 0.00 0.00
9:56 pm 21:56 Clear 28 -2.2 22 -5.6 77 77 WNW 9 15 30.42 1030 10 16 0.00 0.00
10:56 pm 22:56 Clear 26 -3.3 20 -6.7 77 77 WNW 9 15 30.42 1030 10 16 0.00 0.00
11:56 pm 23:56 Clear 25 -3.9 20 -6.7 81 81 WNW 9 15 30.43 1030 10 16 0.00 0.00

Powered by AerisWeather